STARLINK-3758 (52297 NORAD) Tracking and Keplerian Element Data

This shows tracking and keplerian element data for the satellite.

Feedback or suggestion? Click here.




ElementValue
Catalog52297
NameSTARLINK-3758
Epoch Orbit130
Epoch Day167.08334491
Epoch Year2022
RAAN101.4278
Inclination53.2172
Eccentricity0.0001272
Argument of Perigee66.3721
Mean Anonmoly204.9074
Mean Motion15.54951256
Decay Rate-0.00712939
L11 52297U 22041AN 22167.08334491 -.00712939 00000+0 -11433-1 0 9999
L22 52297 53.2172 101.4278 0001272 66.3721 204.9074 15.54951256 1300

Live tracking and technical data element details for STARLINK-3758 (NORAD 52297). STARLINK-3758 can be tracked NOW for your location showing map with azimuth and elevation plus other details from your city location.

Track the satellite on the map from your city or location and see movement details for azimuth, elevation, latitude, longitude, range, height, and movement on the map or in text.







IsCatalogInMostPopularTable: catalog: 52297, numindb: 3
Update: records affected: 1



GetName: 52297 STARLINK-3758

Hit Count: updated at: Sat, 25 Jun 2022 05:16:05 GMT